owner,sensor,date,latitude,longitude,vertical_datum,wind_speed,wind_to_direction,wind_speed_of_gust,qcFlag 
DISL,ioos:station:DISL:CATA:1,2011-10-01T00:00:00Z,30.3085,-88.1395,0.0,5.69,354.4,-9999.0,'1111122,1111122,1111122' 
DISL,ioos:station:DISL:CATA:1,2011-10-01T00:30:00Z,30.3085,-88.1395,0.0,4.14,359.3,-9999.0,'1111122,1111122,1111122' 
DISL,ioos:station:DISL:CATA:1,2011-10-01T01:00:00Z,30.3085,-88.1395,0.0,4.16,354.3,-9999.0,'1111122,1111122,1111122' 
DISL,ioos:station:DISL:CATA:1,2011-10-01T01:30:00Z,30.3085,-88.1395,0.0,4.72,355.6,-9999.0,'1111122,1111122,1111122' 
DISL,ioos:station:DISL:CATA:1,2011-10-01T02:00:00Z,30.3085,-88.1395,0.0,4.25,359.1,-9999.0,'1111122,1111122,1111122' 
DISL,ioos:station:DISL:CATA:1,2011-10-01T02:30:00Z,30.3085,-88.1395,0.0,4.76,356.2,-9999.0,'1111122,1111122,1111122' 
DISL,ioos:station:DISL:CATA:1,2011-10-01T03:00:00Z,30.3085,-88.1395,0.0,4.77,351.5,-9999.0,'1111122,1111122,1111122' 
DISL,ioos:station:DISL:CATA:1,2011-10-01T03:30:00Z,30.3085,-88.1395,0.0,4.09,351.6,-9999.0,'1111122,1111122,1111122' 
DISL,ioos:station:DISL:CATA:1,2011-10-01T04:00:00Z,30.3085,-88.1395,0.0,3.96,352.9,-9999.0,'1111122,1111122,1111122' 
DISL,ioos:station:DISL:CATA:1,2011-10-01T04:30:00Z,30.3085,-88.1395,0.0,3.57,350.3,-9999.0,'1111122,1111122,1111122' 
DISL,ioos:station:DISL:CATA:1,2011-10-01T05:00:00Z,30.3085,-88.1395,0.0,3.27,336.7,-9999.0,'1111122,1111122,1111122' 
DISL,ioos:station:DISL:CATA:1,2011-10-01T05:30:00Z,30.3085,-88.1395,0.0,4.51,354.8,-9999.0,'1111122,1111122,1111122' 
DISL,ioos:station:DISL:CATA:1,2011-10-01T06:00:00Z,30.3085,-88.1395,0.0,4.46,6.259,-9999.0,'1111122,1111122,1111122' 
DISL,ioos:station:DISL:CATA:1,2011-10-01T06:30:00Z,30.3085,-88.1395,0.0,5.52,8.1,-9999.0,'1111122,1111122,1111122' 
DISL,ioos:station:DISL:CATA:1,2011-10-01T07:00:00Z,30.3085,-88.1395,0.0,6.01,5.629,-9999.0,'1111122,1111122,1111122' 
DISL,ioos:station:DISL:CATA:1,2011-10-01T07:30:00Z,30.3085,-88.1395,0.0,5.24,358.5,-9999.0,'1111122,1111122,1111122' 
DISL,ioos:station:DISL:CATA:1,2011-10-01T08:00:00Z,30.3085,-88.1395,0.0,4.76,358.5,-9999.0,'1111122,1111122,1111122' 
DISL,ioos:station:DISL:CATA:1,2011-10-01T08:30:00Z,30.3085,-88.1395,0.0,5.1,6.342,-9999.0,'1111122,1111122,1111122' 
DISL,ioos:station:DISL:CATA:1,2011-10-01T09:00:00Z,30.3085,-88.1395,0.0,5.03,12.47,-9999.0,'1111122,1111122,1111122' 
DISL,ioos:station:DISL:CATA:1,2011-10-01T09:30:00Z,30.3085,-88.1395,0.0,6.01,15.46,-9999.0,'1111122,1111122,1111122' 
DISL,ioos:station:DISL:CATA:1,2011-10-01T10:00:00Z,30.3085,-88.1395,0.0,5.6,8.33,-9999.0,'1111122,1111122,1111122' 
DISL,ioos:station:DISL:CATA:1,2011-10-01T10:30:00Z,30.3085,-88.1395,0.0,6.15,6.583,-9999.0,'1111122,1111122,1111122' 
DISL,ioos:station:DISL:CATA:1,2011-10-01T11:00:00Z,30.3085,-88.1395,0.0,4.97,351.6,-9999.0,'1111122,1111122,1111122' 
DISL,ioos:station:DISL:CATA:1,2011-10-01T11:30:00Z,30.3085,-88.1395,0.0,4.45,352.8,-9999.0,'1111122,1111122,1111122' 
DISL,ioos:station:DISL:CATA:1,2011-10-01T12:00:00Z,30.3085,-88.1395,0.0,4.49,345.3,-9999.0,'1111122,1111122,1111122' 
DISL,ioos:station:DISL:CATA:1,2011-10-01T12:30:00Z,30.3085,-88.1395,0.0,4.32,349.1,-9999.0,'1111122,1111122,1111122' 
DISL,ioos:station:DISL:CATA:1,2011-10-01T13:00:00Z,30.3085,-88.1395,0.0,4.11,350.1,-9999.0,'1111122,1111122,1111122' 
DISL,ioos:station:DISL:CATA:1,2011-10-01T13:30:00Z,30.3085,-88.1395,0.0,4.02,358.3,-9999.0,'1111122,1111122,1111122' 
DISL,ioos:station:DISL:CATA:1,2011-10-01T14:00:00Z,30.3085,-88.1395,0.0,5.83,27.35,-9999.0,'1111122,1111122,1111122' 
DISL,ioos:station:DISL:CATA:1,2011-10-01T14:30:00Z,30.3085,-88.1395,0.0,6.44,35.65,-9999.0,'1111122,1111122,1111122' 
DISL,ioos:station:DISL:CATA:1,2011-10-01T15:00:00Z,30.3085,-88.1395,0.0,6.3,38.82,-9999.0,'1111122,1111122,1111122' 
DISL,ioos:station:DISL:CATA:1,2011-10-01T15:30:00Z,30.3085,-88.1395,0.0,6.35,38.54,-9999.0,'1111122,1111122,1111122' 
DISL,ioos:station:DISL:CATA:1,2011-10-01T16:00:00Z,30.3085,-88.1395,0.0,5.54,39.56,-9999.0,'1111122,1111122,1111122' 
DISL,ioos:station:DISL:CATA:1,2011-10-01T16:30:00Z,30.3085,-88.1395,0.0,4.98,30.98,-9999.0,'1111122,1111122,1111122' 
DISL,ioos:station:DISL:CATA:1,2011-10-01T17:00:00Z,30.3085,-88.1395,0.0,5.47,33.78,-9999.0,'1111122,1111122,1111122' 
DISL,ioos:station:DISL:CATA:1,2011-10-01T17:30:00Z,30.3085,-88.1395,0.0,7.52,35.83,-9999.0,'1111122,1111122,1111122' 
DISL,ioos:station:DISL:CATA:1,2011-10-01T18:00:00Z,30.3085,-88.1395,0.0,7.6,36.33,-9999.0,'1111122,1111122,1111122' 
DISL,ioos:station:DISL:CATA:1,2011-10-01T18:30:00Z,30.3085,-88.1395,0.0,8.33,41.47,-9999.0,'1111122,1111122,1111122' 
DISL,ioos:station:DISL:CATA:1,2011-10-01T19:00:00Z,30.3085,-88.1395,0.0,7.02,30.53,-9999.0,'1111122,1111122,1111122' 
DISL,ioos:station:DISL:CATA:1,2011-10-01T19:30:00Z,30.3085,-88.1395,0.0,5.76,343.7,-9999.0,'1111122,1111122,1111122' 
DISL,ioos:station:DISL:CATA:1,2011-10-01T20:00:00Z,30.3085,-88.1395,0.0,7.19,344.3,-9999.0,'1111122,1111122,1111122' 
DISL,ioos:station:DISL:CATA:1,2011-10-01T20:30:00Z,30.3085,-88.1395,0.0,6.93,6.232,-9999.0,'1111122,1111122,1111122' 
DISL,ioos:station:DISL:CATA:1,2011-10-01T21:00:00Z,30.3085,-88.1395,0.0,6.24,1.026,-9999.0,'1111122,1111122,1111122' 
DISL,ioos:station:DISL:CATA:1,2011-10-01T21:30:00Z,30.3085,-88.1395,0.0,7.28,351.3,-9999.0,'1111122,1111122,1111122' 
DISL,ioos:station:DISL:CATA:1,2011-10-01T22:00:00Z,30.3085,-88.1395,0.0,6.68,352.9,-9999.0,'1111122,1111122,1111122' 
DISL,ioos:station:DISL:CATA:1,2011-10-01T22:30:00Z,30.3085,-88.1395,0.0,6.95,0.035,-9999.0,'1111122,1111122,1111122' 
DISL,ioos:station:DISL:CATA:1,2011-10-01T23:00:00Z,30.3085,-88.1395,0.0,5.38,2.465,-9999.0,'1111122,1111122,1111122' 
DISL,ioos:station:DISL:CATA:1,2011-10-01T23:30:00Z,30.3085,-88.1395,0.0,4.69,352.6,-9999.0,'1111122,1111122,1111122' 
DISL,ioos:station:DISL:CATA:1,2011-10-02T00:00:00Z,30.3085,-88.1395,0.0,3.74,356.6,-9999.0,'1111122,1111122,1111122' 
DISL,ioos:station:DISL:CATA:1,2011-10-02T00:30:00Z,30.3085,-88.1395,0.0,3.64,2.817,-9999.0,'1111122,1111122,1111122' 
DISL,ioos:station:DISL:CATA:1,2011-10-02T01:00:00Z,30.3085,-88.1395,0.0,4.45,11.87,-9999.0,'1111122,1111122,1111122' 
DISL,ioos:station:DISL:CATA:1,2011-10-02T01:30:00Z,30.3085,-88.1395,0.0,4.78,9.11,-9999.0,'1111122,1111122,1111122' 
DISL,ioos:station:DISL:CATA:1,2011-10-02T02:00:00Z,30.3085,-88.1395,0.0,4.8,7.07,-9999.0,'1111122,1111122,1111122' 
DISL,ioos:station:DISL:CATA:1,2011-10-02T02:30:00Z,30.3085,-88.1395,0.0,3.96,0.011,-9999.0,'1111122,1111122,1111122' 
DISL,ioos:station:DISL:CATA:1,2011-10-02T03:00:00Z,30.3085,-88.1395,0.0,5.69,10.03,-9999.0,'1111122,1111122,1111122' 
DISL,ioos:station:DISL:CATA:1,2011-10-02T03:30:00Z,30.3085,-88.1395,0.0,5.63,11.08,-9999.0,'1111122,1111122,1111122' 
DISL,ioos:station:DISL:CATA:1,2011-10-02T04:00:00Z,30.3085,-88.1395,0.0,5.18,8.78,-9999.0,'1111122,1111122,1111122' 
DISL,ioos:station:DISL:CATA:1,2011-10-02T04:30:00Z,30.3085,-88.1395,0.0,5.6,7.275,-9999.0,'1111122,1111122,1111122' 
DISL,ioos:station:DISL:CATA:1,2011-10-02T05:00:00Z,30.3085,-88.1395,0.0,5.33,6.43,-9999.0,'1111122,1111122,1111122' 
DISL,ioos:station:DISL:CATA:1,2011-10-02T05:30:00Z,30.3085,-88.1395,0.0,5.63,10.07,-9999.0,'1111122,1111122,1111122' 
DISL,ioos:station:DISL:CATA:1,2011-10-02T06:00:00Z,30.3085,-88.1395,0.0,5.43,12.75,-9999.0,'1111122,1111122,1111122' 
DISL,ioos:station:DISL:CATA:1,2011-10-02T06:30:00Z,30.3085,-88.1395,0.0,7.44,26.98,-9999.0,'1111122,1111122,1111122' 
DISL,ioos:station:DISL:CATA:1,2011-10-02T07:00:00Z,30.3085,-88.1395,0.0,8.16,30.42,-9999.0,'1111122,1111122,1111122' 
DISL,ioos:station:DISL:CATA:1,2011-10-02T07:30:00Z,30.3085,-88.1395,0.0,8.28,39.13,-9999.0,'1111122,1111122,1111122' 
DISL,ioos:station:DISL:CATA:1,2011-10-02T08:00:00Z,30.3085,-88.1395,0.0,9.47,41.29,-9999.0,'1111122,1111122,1111122' 
DISL,ioos:station:DISL:CATA:1,2011-10-02T08:30:00Z,30.3085,-88.1395,0.0,8.68,44.73,-9999.0,'1111122,1111122,1111122' 
DISL,ioos:station:DISL:CATA:1,2011-10-02T09:00:00Z,30.3085,-88.1395,0.0,8.64,39.43,-9999.0,'1111122,1111122,1111122' 
DISL,ioos:station:DISL:CATA:1,2011-10-02T09:30:00Z,30.3085,-88.1395,0.0,8.3,45.04,-9999.0,'1111122,1111122,1111122' 
DISL,ioos:station:DISL:CATA:1,2011-10-02T10:00:00Z,30.3085,-88.1395,0.0,7.96,50.11,-9999.0,'1111122,1111122,1111122' 
DISL,ioos:station:DISL:CATA:1,2011-10-02T10:30:00Z,30.3085,-88.1395,0.0,8.0,44.82,-9999.0,'1111122,1111122,1111122' 
DISL,ioos:station:DISL:CATA:1,2011-10-02T11:00:00Z,30.3085,-88.1395,0.0,7.83,49.13,-9999.0,'1111122,1111122,1111122' 
DISL,ioos:station:DISL:CATA:1,2011-10-02T11:30:00Z,30.3085,-88.1395,0.0,7.32,51.75,-9999.0,'1111122,1111122,1111122' 
DISL,ioos:station:DISL:CATA:1,2011-10-02T12:00:00Z,30.3085,-88.1395,0.0,7.52,55.13,-9999.0,'1111122,1111122,1111122' 
DISL,ioos:station:DISL:CATA:1,2011-10-02T12:30:00Z,30.3085,-88.1395,0.0,7.67,55.29,-9999.0,'1111122,1111122,1111122' 
DISL,ioos:station:DISL:CATA:1,2011-10-02T13:00:00Z,30.3085,-88.1395,0.0,7.79,60.57,-9999.0,'1111122,1111122,1111122' 
DISL,ioos:station:DISL:CATA:1,2011-10-02T13:30:00Z,30.3085,-88.1395,0.0,6.96,60.63,-9999.0,'1111122,1111122,1111122' 
DISL,ioos:station:DISL:CATA:1,2011-10-02T14:00:00Z,30.3085,-88.1395,0.0,6.96,57.8,-9999.0,'1111122,1111122,1111122' 
DISL,ioos:station:DISL:CATA:1,2011-10-02T14:30:00Z,30.3085,-88.1395,0.0,6.46,58.43,-9999.0,'1111122,1111122,1111122' 
DISL,ioos:station:DISL:CATA:1,2011-10-02T15:00:00Z,30.3085,-88.1395,0.0,6.17,52.65,-9999.0,'1111122,1111122,1111122' 
DISL,ioos:station:DISL:CATA:1,2011-10-02T15:30:00Z,30.3085,-88.1395,0.0,6.6,43.49,-9999.0,'1111122,1111122,1111122' 
DISL,ioos:station:DISL:CATA:1,2011-10-02T16:00:00Z,30.3085,-88.1395,0.0,5.19,44.63,-9999.0,'1111122,1111122,1111122' 
DISL,ioos:station:DISL:CATA:1,2011-10-02T16:30:00Z,30.3085,-88.1395,0.0,5.1,42.11,-9999.0,'1111122,1111122,1111122' 
DISL,ioos:station:DISL:CATA:1,2011-10-02T17:00:00Z,30.3085,-88.1395,0.0,4.74,34.57,-9999.0,'1111122,1111122,1111122' 
DISL,ioos:station:DISL:CATA:1,2011-10-02T17:30:00Z,30.3085,-88.1395,0.0,4.22,46.11,-9999.0,'1111122,1111122,1111122' 
DISL,ioos:station:DISL:CATA:1,2011-10-02T18:00:00Z,30.3085,-88.1395,0.0,4.75,45.17,-9999.0,'1111122,1111122,1111122' 
DISL,ioos:station:DISL:CATA:1,2011-10-02T18:30:00Z,30.3085,-88.1395,0.0,5.81,41.48,-9999.0,'1111122,1111122,1111122' 
DISL,ioos:station:DISL:CATA:1,2011-10-02T19:00:00Z,30.3085,-88.1395,0.0,4.93,49.75,-9999.0,'1111122,1111122,1111122' 
DISL,ioos:station:DISL:CATA:1,2011-10-02T19:30:00Z,30.3085,-88.1395,0.0,4.52,49.44,-9999.0,'1111122,1111122,1111122' 
DISL,ioos:station:DISL:CATA:1,2011-10-02T20:00:00Z,30.3085,-88.1395,0.0,4.9,53.77,-9999.0,'1111122,1111122,1111122' 
DISL,ioos:station:DISL:CATA:1,2011-10-02T20:30:00Z,30.3085,-88.1395,0.0,5.37,44.06,-9999.0,'1111122,1111122,1111122' 
DISL,ioos:station:DISL:CATA:1,2011-10-02T21:00:00Z,30.3085,-88.1395,0.0,3.18,22.31,-9999.0,'1111122,1111122,1111122' 
DISL,ioos:station:DISL:CATA:1,2011-10-02T21:30:00Z,30.3085,-88.1395,0.0,3.04,243.2,-9999.0,'1111122,1111122,1111122' 
DISL,ioos:station:DISL:CATA:1,2011-10-02T22:00:00Z,30.3085,-88.1395,0.0,2.51,242.0,-9999.0,'1111122,1111122,1111122' 
DISL,ioos:station:DISL:CATA:1,2011-10-02T22:30:00Z,30.3085,-88.1395,0.0,1.63,235.7,-9999.0,'1111122,1111122,1111122' 
DISL,ioos:station:DISL:CATA:1,2011-10-02T23:00:00Z,30.3085,-88.1395,0.0,2.78,222.0,-9999.0,'1111122,1111122,1111122' 
DISL,ioos:station:DISL:CATA:1,2011-10-02T23:30:00Z,30.3085,-88.1395,0.0,2.01,238.9,-9999.0,'1111122,1111122,1111122' 
DISL,ioos:station:DISL:CATA:1,2011-10-03T00:00:00Z,30.3085,-88.1395,0.0,2.18,333.1,-9999.0,'1111122,1111122,1111122' 
DISL,ioos:station:DISL:CATA:1,2011-10-03T00:30:00Z,30.3085,-88.1395,0.0,2.79,342.6,-9999.0,'1111122,1111122,1111122' 
DISL,ioos:station:DISL:CATA:1,2011-10-03T01:00:00Z,30.3085,-88.1395,0.0,3.35,356.9,-9999.0,'1111122,1111122,1111122' 
DISL,ioos:station:DISL:CATA:1,2011-10-03T01:30:00Z,30.3085,-88.1395,0.0,3.41,348.2,-9999.0,'1111122,1111122,1111122' 
DISL,ioos:station:DISL:CATA:1,2011-10-03T02:00:00Z,30.3085,-88.1395,0.0,3.52,350.7,-9999.0,'1111122,1111122,1111122' 
DISL,ioos:station:DISL:CATA:1,2011-10-03T02:30:00Z,30.3085,-88.1395,0.0,3.46,353.4,-9999.0,'1111122,1111122,1111122' 
DISL,ioos:station:DISL:CATA:1,2011-10-03T03:00:00Z,30.3085,-88.1395,0.0,3.35,353.7,-9999.0,'1111122,1111122,1111122' 
DISL,ioos:station:DISL:CATA:1,2011-10-03T03:30:00Z,30.3085,-88.1395,0.0,3.51,355.8,-9999.0,'1111122,1111122,1111122' 
DISL,ioos:station:DISL:CATA:1,2011-10-03T04:00:00Z,30.3085,-88.1395,0.0,4.22,5.57,-9999.0,'1111122,1111122,1111122' 
DISL,ioos:station:DISL:CATA:1,2011-10-03T04:30:00Z,30.3085,-88.1395,0.0,4.99,11.0,-9999.0,'1111122,1111122,1111122' 
DISL,ioos:station:DISL:CATA:1,2011-10-03T05:00:00Z,30.3085,-88.1395,0.0,3.61,6.06,-9999.0,'1111122,1111122,1111122' 
DISL,ioos:station:DISL:CATA:1,2011-10-03T05:30:00Z,30.3085,-88.1395,0.0,3.12,358.3,-9999.0,'1111122,1111122,1111122' 
DISL,ioos:station:DISL:CATA:1,2011-10-03T06:00:00Z,30.3085,-88.1395,0.0,3.64,353.1,-9999.0,'1111122,1111122,1111122' 
DISL,ioos:station:DISL:CATA:1,2011-10-03T06:30:00Z,30.3085,-88.1395,0.0,3.31,359.2,-9999.0,'1111122,1111122,1111122' 
DISL,ioos:station:DISL:CATA:1,2011-10-03T07:00:00Z,30.3085,-88.1395,0.0,3.36,4.467,-9999.0,'1111122,1111122,1111122' 
DISL,ioos:station:DISL:CATA:1,2011-10-03T07:30:00Z,30.3085,-88.1395,0.0,3.63,3.612,-9999.0,'1111122,1111122,1111122' 
DISL,ioos:station:DISL:CATA:1,2011-10-03T08:00:00Z,30.3085,-88.1395,0.0,3.94,10.35,-9999.0,'1111122,1111122,1111122' 
DISL,ioos:station:DISL:CATA:1,2011-10-03T08:30:00Z,30.3085,-88.1395,0.0,4.01,14.61,-9999.0,'1111122,1111122,1111122' 
DISL,ioos:station:DISL:CATA:1,2011-10-03T09:00:00Z,30.3085,-88.1395,0.0,4.12,17.99,-9999.0,'1111122,1111122,1111122' 
DISL,ioos:station:DISL:CATA:1,2011-10-03T09:30:00Z,30.3085,-88.1395,0.0,4.73,13.37,-9999.0,'1111122,1111122,1111122' 
DISL,ioos:station:DISL:CATA:1,2011-10-03T10:00:00Z,30.3085,-88.1395,0.0,4.73,17.13,-9999.0,'1111122,1111122,1111122' 
DISL,ioos:station:DISL:CATA:1,2011-10-03T10:30:00Z,30.3085,-88.1395,0.0,7.49,47.3,-9999.0,'1111122,1111122,1111122' 
DISL,ioos:station:DISL:CATA:1,2011-10-03T11:00:00Z,30.3085,-88.1395,0.0,7.06,52.22,-9999.0,'1111122,1111122,1111122' 
DISL,ioos:station:DISL:CATA:1,2011-10-03T11:30:00Z,30.3085,-88.1395,0.0,7.46,58.39,-9999.0,'1111122,1111122,1111122' 
DISL,ioos:station:DISL:CATA:1,2011-10-03T12:00:00Z,30.3085,-88.1395,0.0,7.6,63.64,-9999.0,'1111122,1111122,1111122' 
DISL,ioos:station:DISL:CATA:1,2011-10-03T12:30:00Z,30.3085,-88.1395,0.0,7.98,69.63,-9999.0,'1111122,1111122,1111122' 
DISL,ioos:station:DISL:CATA:1,2011-10-03T13:00:00Z,30.3085,-88.1395,0.0,7.36,67.79,-9999.0,'1111122,1111122,1111122' 
DISL,ioos:station:DISL:CATA:1,2011-10-03T13:30:00Z,30.3085,-88.1395,0.0,7.39,65.24,-9999.0,'1111122,1111122,1111122' 
DISL,ioos:station:DISL:CATA:1,2011-10-03T14:00:00Z,30.3085,-88.1395,0.0,7.2,70.03,-9999.0,'1111122,1111122,1111122' 
DISL,ioos:station:DISL:CATA:1,2011-10-03T14:30:00Z,30.3085,-88.1395,0.0,7.04,67.4,-9999.0,'1111122,1111122,1111122' 
DISL,ioos:station:DISL:CATA:1,2011-10-03T15:00:00Z,30.3085,-88.1395,0.0,6.49,72.47,-9999.0,'1111122,1111122,1111122' 
DISL,ioos:station:DISL:CATA:1,2011-10-03T15:30:00Z,30.3085,-88.1395,0.0,5.65,73.96,-9999.0,'1111122,1111122,1111122' 
DISL,ioos:station:DISL:CATA:1,2011-10-03T16:00:00Z,30.3085,-88.1395,0.0,4.34,70.63,-9999.0,'1111122,1111122,1111122' 
DISL,ioos:station:DISL:CATA:1,2011-10-03T16:30:00Z,30.3085,-88.1395,0.0,3.76,64.01,-9999.0,'1111122,1111122,1111122' 
DISL,ioos:station:DISL:CATA:1,2011-10-03T17:00:00Z,30.3085,-88.1395,0.0,3.22,50.84,-9999.0,'1111122,1111122,1111122' 
DISL,ioos:station:DISL:CATA:1,2011-10-03T17:30:00Z,30.3085,-88.1395,0.0,2.85,46.53,-9999.0,'1111122,1111122,1111122' 
DISL,ioos:station:DISL:CATA:1,2011-10-03T18:00:00Z,30.3085,-88.1395,0.0,3.25,29.13,-9999.0,'1111122,1111122,1111122' 
DISL,ioos:station:DISL:CATA:1,2011-10-03T18:30:00Z,30.3085,-88.1395,0.0,2.1,72.72,-9999.0,'1111122,1111122,1111122' 
DISL,ioos:station:DISL:CATA:1,2011-10-03T19:00:00Z,30.3085,-88.1395,0.0,2.79,80.0,-9999.0,'1111122,1111122,1111122' 
DISL,ioos:station:DISL:CATA:1,2011-10-03T19:30:00Z,30.3085,-88.1395,0.0,3.53,39.72,-9999.0,'1111122,1111122,1111122' 
DISL,ioos:station:DISL:CATA:1,2011-10-03T20:00:00Z,30.3085,-88.1395,0.0,4.23,36.07,-9999.0,'1111122,1111122,1111122' 
DISL,ioos:station:DISL:CATA:1,2011-10-03T20:30:00Z,30.3085,-88.1395,0.0,3.83,37.78,-9999.0,'1111122,1111122,1111122' 
DISL,ioos:station:DISL:CATA:1,2011-10-03T21:00:00Z,30.3085,-88.1395,0.0,3.61,38.7,-9999.0,'1111122,1111122,1111122' 
DISL,ioos:station:DISL:CATA:1,2011-10-03T21:30:00Z,30.3085,-88.1395,0.0,3.26,51.11,-9999.0,'1111122,1111122,1111122' 
DISL,ioos:station:DISL:CATA:1,2011-10-03T22:00:00Z,30.3085,-88.1395,0.0,3.74,41.31,-9999.0,'1111122,1111122,1111122' 
DISL,ioos:station:DISL:CATA:1,2011-10-03T22:30:00Z,30.3085,-88.1395,0.0,3.18,41.08,-9999.0,'1111122,1111122,1111122' 
DISL,ioos:station:DISL:CATA:1,2011-10-03T23:00:00Z,30.3085,-88.1395,0.0,2.7,346.0,-9999.0,'1111122,1111122,1111122' 
DISL,ioos:station:DISL:CATA:1,2011-10-03T23:30:00Z,30.3085,-88.1395,0.0,3.01,281.9,-9999.0,'1111122,1111122,1111122' 
DISL,ioos:station:DISL:CATA:1,2011-10-04T00:00:00Z,30.3085,-88.1395,0.0,2.77,302.1,-9999.0,'1111122,1111122,1111122' 
DISL,ioos:station:DISL:CATA:1,2011-10-04T00:30:00Z,30.3085,-88.1395,0.0,3.25,300.9,-9999.0,'1111122,1111122,1111122' 
DISL,ioos:station:DISL:CATA:1,2011-10-04T01:00:00Z,30.3085,-88.1395,0.0,3.34,319.8,-9999.0,'1111122,1111122,1111122' 
DISL,ioos:station:DISL:CATA:1,2011-10-04T01:30:00Z,30.3085,-88.1395,0.0,3.4,329.3,-9999.0,'1111122,1111122,1111122' 
DISL,ioos:station:DISL:CATA:1,2011-10-04T02:00:00Z,30.3085,-88.1395,0.0,3.52,323.0,-9999.0,'1111122,1111122,1111122' 
DISL,ioos:station:DISL:CATA:1,2011-10-04T02:30:00Z,30.3085,-88.1395,0.0,2.29,347.4,-9999.0,'1111122,1111122,1111122' 
DISL,ioos:station:DISL:CATA:1,2011-10-04T03:00:00Z,30.3085,-88.1395,0.0,2.83,351.8,-9999.0,'1111122,1111122,1111122' 
DISL,ioos:station:DISL:CATA:1,2011-10-04T03:30:00Z,30.3085,-88.1395,0.0,2.83,343.2,-9999.0,'1111122,1111122,1111122' 
DISL,ioos:station:DISL:CATA:1,2011-10-04T04:00:00Z,30.3085,-88.1395,0.0,2.0,4.391,-9999.0,'1111122,1111122,1111122' 
DISL,ioos:station:DISL:CATA:1,2011-10-04T04:30:00Z,30.3085,-88.1395,0.0,3.05,3.509,-9999.0,'1111122,1111122,1111122' 
DISL,ioos:station:DISL:CATA:1,2011-10-04T05:00:00Z,30.3085,-88.1395,0.0,3.76,359.4,-9999.0,'1111122,1111122,1111122' 
DISL,ioos:station:DISL:CATA:1,2011-10-04T05:30:00Z,30.3085,-88.1395,0.0,3.02,3.06,-9999.0,'1111122,1111122,1111122' 
DISL,ioos:station:DISL:CATA:1,2011-10-04T06:00:00Z,30.3085,-88.1395,0.0,3.02,5.027,-9999.0,'1111122,1111122,1111122' 
DISL,ioos:station:DISL:CATA:1,2011-10-04T06:30:00Z,30.3085,-88.1395,0.0,3.36,10.82,-9999.0,'1111122,1111122,1111122' 
DISL,ioos:station:DISL:CATA:1,2011-10-04T07:00:00Z,30.3085,-88.1395,0.0,3.96,14.07,-9999.0,'1111122,1111122,1111122' 
DISL,ioos:station:DISL:CATA:1,2011-10-04T07:30:00Z,30.3085,-88.1395,0.0,4.11,13.7,-9999.0,'1111122,1111122,1111122' 
DISL,ioos:station:DISL:CATA:1,2011-10-04T08:00:00Z,30.3085,-88.1395,0.0,3.73,14.37,-9999.0,'1111122,1111122,1111122' 
DISL,ioos:station:DISL:CATA:1,2011-10-04T08:30:00Z,30.3085,-88.1395,0.0,3.79,12.88,-9999.0,'1111122,1111122,1111122' 
DISL,ioos:station:DISL:CATA:1,2011-10-04T09:00:00Z,30.3085,-88.1395,0.0,3.47,13.58,-9999.0,'1111122,1111122,1111122' 
DISL,ioos:station:DISL:CATA:1,2011-10-04T09:30:00Z,30.3085,-88.1395,0.0,3.7,10.75,-9999.0,'1111122,1111122,1111122' 
DISL,ioos:station:DISL:CATA:1,2011-10-04T10:00:00Z,30.3085,-88.1395,0.0,3.74,15.34,-9999.0,'1111122,1111122,1111122' 
DISL,ioos:station:DISL:CATA:1,2011-10-04T10:30:00Z,30.3085,-88.1395,0.0,3.6,17.69,-9999.0,'1111122,1111122,1111122' 
DISL,ioos:station:DISL:CATA:1,2011-10-04T11:00:00Z,30.3085,-88.1395,0.0,3.58,12.08,-9999.0,'1111122,1111122,1111122' 
DISL,ioos:station:DISL:CATA:1,2011-10-04T11:30:00Z,30.3085,-88.1395,0.0,3.0,20.4,-9999.0,'1111122,1111122,1111122' 
DISL,ioos:station:DISL:CATA:1,2011-10-04T12:00:00Z,30.3085,-88.1395,0.0,3.33,16.29,-9999.0,'1111122,1111122,1111122' 
DISL,ioos:station:DISL:CATA:1,2011-10-04T12:30:00Z,30.3085,-88.1395,0.0,4.03,35.42,-9999.0,'1111122,1111122,1111122' 
DISL,ioos:station:DISL:CATA:1,2011-10-04T13:00:00Z,30.3085,-88.1395,0.0,4.84,39.73,-9999.0,'1111122,1111122,1111122' 
DISL,ioos:station:DISL:CATA:1,2011-10-04T13:30:00Z,30.3085,-88.1395,0.0,5.36,47.74,-9999.0,'1111122,1111122,1111122' 
DISL,ioos:station:DISL:CATA:1,2011-10-04T14:00:00Z,30.3085,-88.1395,0.0,5.4,47.61,-9999.0,'1111122,1111122,1111122' 
DISL,ioos:station:DISL:CATA:1,2011-10-04T14:30:00Z,30.3085,-88.1395,0.0,5.37,55.48,-9999.0,'1111122,1111122,1111122' 
DISL,ioos:station:DISL:CATA:1,2011-10-04T15:00:00Z,30.3085,-88.1395,0.0,5.04,54.07,-9999.0,'1111122,1111122,1111122' 
DISL,ioos:station:DISL:CATA:1,2011-10-04T15:30:00Z,30.3085,-88.1395,0.0,4.21,52.72,-9999.0,'1111122,1111122,1111122' 
DISL,ioos:station:DISL:CATA:1,2011-10-04T16:00:00Z,30.3085,-88.1395,0.0,4.39,51.03,-9999.0,'1111122,1111122,1111122' 
DISL,ioos:station:DISL:CATA:1,2011-10-04T16:30:00Z,30.3085,-88.1395,0.0,4.42,45.87,-9999.0,'1111122,1111122,1111122' 
DISL,ioos:station:DISL:CATA:1,2011-10-04T17:00:00Z,30.3085,-88.1395,0.0,4.28,40.31,-9999.0,'1111122,1111122,1111122' 
DISL,ioos:station:DISL:CATA:1,2011-10-04T17:30:00Z,30.3085,-88.1395,0.0,4.11,36.44,-9999.0,'1111122,1111122,1111122' 
DISL,ioos:station:DISL:CATA:1,2011-10-04T18:00:00Z,30.3085,-88.1395,0.0,3.13,39.37,-9999.0,'1111122,1111122,1111122' 
DISL,ioos:station:DISL:CATA:1,2011-10-04T18:30:00Z,30.3085,-88.1395,0.0,2.74,38.89,-9999.0,'1111122,1111122,1111122' 
DISL,ioos:station:DISL:CATA:1,2011-10-04T19:00:00Z,30.3085,-88.1395,0.0,2.47,42.66,-9999.0,'1111122,1111122,1111122' 
DISL,ioos:station:DISL:CATA:1,2011-10-04T19:30:00Z,30.3085,-88.1395,0.0,2.26,48.28,-9999.0,'1111122,1111122,1111122' 
DISL,ioos:station:DISL:CATA:1,2011-10-04T20:00:00Z,30.3085,-88.1395,0.0,1.97,53.11,-9999.0,'1111122,1111122,1111122' 
DISL,ioos:station:DISL:CATA:1,2011-10-04T20:30:00Z,30.3085,-88.1395,0.0,2.92,45.66,-9999.0,'1111122,1111122,1111122' 
DISL,ioos:station:DISL:CATA:1,2011-10-04T21:00:00Z,30.3085,-88.1395,0.0,3.42,43.7,-9999.0,'1111122,1111122,1111122' 
DISL,ioos:station:DISL:CATA:1,2011-10-04T21:30:00Z,30.3085,-88.1395,0.0,3.41,44.39,-9999.0,'1111122,1111122,1111122' 
DISL,ioos:station:DISL:CATA:1,2011-10-04T22:00:00Z,30.3085,-88.1395,0.0,2.42,50.54,-9999.0,'1111122,1111122,1111122' 
DISL,ioos:station:DISL:CATA:1,2011-10-04T22:30:00Z,30.3085,-88.1395,0.0,3.07,43.64,-9999.0,'1111122,1111122,1111122' 
DISL,ioos:station:DISL:CATA:1,2011-10-04T23:00:00Z,30.3085,-88.1395,0.0,2.3,10.1,-9999.0,'1111122,1111122,1111122' 
DISL,ioos:station:DISL:CATA:1,2011-10-04T23:30:00Z,30.3085,-88.1395,0.0,2.54,285.8,-9999.0,'1111122,1111122,1111122' 
DISL,ioos:station:DISL:CATA:1,2011-10-05T00:00:00Z,30.3085,-88.1395,0.0,2.31,287.3,-9999.0,'1111122,1111122,1111122' 
DISL,ioos:station:DISL:CATA:1,2011-10-05T00:30:00Z,30.3085,-88.1395,0.0,2.38,319.4,-9999.0,'1111122,1111122,1111122' 
DISL,ioos:station:DISL:CATA:1,2011-10-05T01:00:00Z,30.3085,-88.1395,0.0,2.77,1.464,-9999.0,'1111122,1111122,1111122' 
DISL,ioos:station:DISL:CATA:1,2011-10-05T01:30:00Z,30.3085,-88.1395,0.0,2.72,356.1,-9999.0,'1111122,1111122,1111122' 
DISL,ioos:station:DISL:CATA:1,2011-10-05T02:00:00Z,30.3085,-88.1395,0.0,2.53,4.775,-9999.0,'1111122,1111122,1111122' 
DISL,ioos:station:DISL:CATA:1,2011-10-05T02:30:00Z,30.3085,-88.1395,0.0,2.47,6.396,-9999.0,'1111122,1111122,1111122' 
DISL,ioos:station:DISL:CATA:1,2011-10-05T03:00:00Z,30.3085,-88.1395,0.0,3.34,14.39,-9999.0,'1111122,1111122,1111122' 
DISL,ioos:station:DISL:CATA:1,2011-10-05T03:30:00Z,30.3085,-88.1395,0.0,2.71,19.98,-9999.0,'1111122,1111122,1111122' 
DISL,ioos:station:DISL:CATA:1,2011-10-05T04:00:00Z,30.3085,-88.1395,0.0,2.0,24.78,-9999.0,'1111122,1111122,1111122' 
DISL,ioos:station:DISL:CATA:1,2011-10-05T04:30:00Z,30.3085,-88.1395,0.0,3.17,39.85,-9999.0,'1111122,1111122,1111122' 